| time (UTC) | temp F | wind direction | speed MPH | gust MPH | rain 1hr in | rain 24hr in | rain mn in | humidity % | barometer mb |
| 20260509194556 | 68 | 359 | 0.0 | 0.0 | 0.00 | 0.00 | 0.00 | 55 | 1018.6 |
| 20260509193053 | 68 | 316 | 0.0 | 0.0 | 0.00 | 0.00 | 0.00 | 59 | 1018.8 |
| 20260509191550 | 66 | 14 | 0.0 | 1.0 | 0.00 | 0.00 | 0.00 | 60 | 1018.9 |
| 20260509190047 | 67 | 360 | 0.0 | 1.0 | 0.00 | 0.00 | 0.00 | 59 | 1019.2 |
| 20260509184552 | 65 | 253 | 0.0 | 1.0 | 0.00 | 0.00 | 0.00 | 61 | 1019.2 |
| 20260509183042 | 65 | 331 | 0.0 | 1.0 | 0.00 | 0.00 | 0.00 | 63 | 1019.4 |
| 20260509181550 | 63 | 11 | 0.0 | 9.0 | 0.00 | 0.00 | 0.00 | 64 | 1019.5 |
| 20260509180032 | 62 | 2 | 0.0 | 1.0 | 0.00 | 0.00 | 0.00 | 66 | 1019.5 |
| 20260509174530 | 61 | 291 | 0.0 | 1.0 | 0.00 | 0.00 | 0.00 | 67 | 1019.8 |
| 20260509173027 | 61 | 354 | 0.0 | 0.0 | 0.00 | 0.00 | 0.00 | 67 | 1019.8 |
| 20260509171523 | 59 | 321 | 0.0 | 1.0 | 0.00 | 0.00 | 0.00 | 72 | 1019.9 |
| 20260509170019 | 58 | 321 | 0.0 | 1.0 | 0.00 | 0.00 | 0.00 | 72 | 1020.3 |
| 20260509164520 | 57 | 330 | 0.0 | 1.0 | 0.00 | 0.00 | 0.00 | 73 | 1020.3 |
| 20260509163013 | 56 | 333 | 0.0 | 1.0 | 0.00 | 0.00 | 0.00 | 74 | 1020.7 |
| 20260509161507 | 55 | 360 | 0.0 | 1.0 | 0.00 | 0.00 | 0.00 | 76 | 1020.8 |
| 20260509160005 | 54 | 324 | 0.0 | 1.0 | 0.00 | 0.00 | 0.00 | 77 | 1020.7 |
| 20260509154503 | 54 | 5 | 0.0 | 2.0 | 0.00 | 0.00 | 0.00 | 78 | 1020.8 |
| 20260509153003 | 54 | 348 | 0.0 | 1.0 | 0.00 | 0.00 | 0.00 | 80 | 1021.1 |
| 20260509151600 | 53 | 2 | 0.0 | 1.0 | 0.00 | 0.00 | 0.00 | 81 | 1021.3 |
| 20260509150100 | 53 | 311 | 0.0 | 0.0 | 0.00 | 0.00 | 0.00 | 83 | 1021.4 |
| 20260509144601 | 51 | 359 | 0.0 | 0.0 | 0.00 | 0.00 | 0.00 | 85 | 1021.4 |
| 20260509143059 | 51 | 347 | 0.0 | 0.0 | 0.00 | 0.00 | 0.00 | 86 | 1021.3 |
| 20260509141558 | 50 | 359 | 0.0 | 0.0 | 0.00 | 0.00 | 0.00 | 90 | 1021.2 |
| 20260509140105 | 49 | 359 | 0.0 | 0.0 | 0.00 | 0.00 | 0.00 | 91 | 1021.3 |
| 20260509134603 | 48 | 359 | 0.0 | 0.0 | 0.00 | 0.00 | 0.00 | 90 | 1021.2 |
| 20260509133057 | 47 | 355 | 0.0 | 0.0 | 0.00 | 0.00 | 0.00 | 89 | 1021.1 |
| 20260509131555 | 47 | 355 | 0.0 | 0.0 | 0.00 | 0.00 | 0.00 | 87 | 1021.1 |
| 20260509130055 | 47 | 355 | 0.0 | 0.0 | 0.00 | 0.00 | 0.00 | 86 | 1021.1 |
| 20260509124551 | 48 | 360 | 0.0 | 0.0 | 0.00 | 0.00 | 0.00 | 85 | 1021.3 |
| 20260509123049 | 48 | 360 | 0.0 | 0.0 | 0.00 | 0.00 | 0.00 | 85 | 1021.2 |
| 20260509121546 | 49 | 360 | 0.0 | 0.0 | 0.00 | 0.00 | 0.00 | 85 | 1021.4 |
| 20260509120058 | 49 | 359 | 0.0 | 0.0 | 0.00 | 0.00 | 0.00 | 84 | 1021.5 |
| 20260509114544 | 49 | 359 | 0.0 | 0.0 | 0.00 | 0.00 | 0.00 | 84 | 1021.4 |
| 20260509113043 | 50 | 359 | 0.0 | 0.0 | 0.00 | 0.00 | 0.00 | 84 | 1021.5 |
| 20260509111542 | 50 | 347 | 0.0 | 0.0 | 0.00 | 0.00 | 0.00 | 84 | 1021.4 |
| 20260509110044 | 50 | 359 | 0.0 | 0.0 | 0.00 | 0.00 | 0.00 | 85 | 1021.6 |
| 20260509104539 | 49 | 293 | 0.0 | 0.0 | 0.00 | 0.00 | 0.00 | 84 | 1021.8 |
| 20260509103038 | 49 | 293 | 0.0 | 0.0 | 0.00 | 0.00 | 0.00 | 83 | 1021.8 |
| 20260509101545 | 50 | 293 | 0.0 | 0.0 | 0.00 | 0.00 | 0.00 | 83 | 1021.8 |
| 20260509100041 | 50 | 293 | 0.0 | 0.0 | 0.00 | 0.00 | 0.00 | 82 | 1021.8 |
| 20260509094532 | 50 | 293 | 0.0 | 0.0 | 0.00 | 0.00 | 0.00 | 81 | 1022.0 |
| 20260509093030 | 50 | 293 | 0.0 | 0.0 | 0.00 | 0.00 | 0.00 | 81 | 1022.0 |
| 20260509091533 | 51 | 293 | 0.0 | 0.0 | 0.00 | 0.00 | 0.00 | 80 | 1022.0 |
| 20260509090026 | 51 | 293 | 0.0 | 0.0 | 0.00 | 0.00 | 0.00 | 80 | 1022.1 |
| 20260509084528 | 51 | 293 | 0.0 | 0.0 | 0.00 | 0.00 | 0.00 | 79 | 1022.2 |
| 20260509083021 | 52 | 293 | 0.0 | 0.0 | 0.00 | 0.00 | 0.00 | 78 | 1022.3 |
| 20260509081519 | 52 | 293 | 0.0 | 0.0 | 0.00 | 0.00 | 0.00 | 78 | 1022.5 |
| 20260509080016 | 53 | 293 | 0.0 | 0.0 | 0.00 | 0.00 | 0.00 | 76 | 1022.5 |
| 20260509074514 | 53 | 293 | 0.0 | 0.0 | 0.00 | 0.00 | 0.00 | 76 | 1022.5 |
| 20260509073021 | 54 | 293 | 0.0 | 0.0 | 0.00 | 0.00 | 0.00 | 75 | 1022.5 |
| 20260509071510 | 54 | 293 | 0.0 | 0.0 | 0.00 | 0.00 | 0.00 | 75 | 1022.6 |
| 20260509070008 | 54 | 293 | 0.0 | 0.0 | 0.00 | 0.00 | 0.00 | 75 | 1022.5 |
| 20260509064507 | 55 | 293 | 0.0 | 0.0 | 0.00 | 0.00 | 0.00 | 74 | 1022.5 |
| 20260509063012 | 55 | 293 | 0.0 | 0.0 | 0.00 | 0.00 | 0.00 | 74 | 1022.6 |
| 20260509061505 | 55 | 296 | 0.0 | 0.0 | 0.00 | 0.00 | 0.00 | 73 | 1022.5 |
| 20260509060006 | 56 | 291 | 0.0 | 0.0 | 0.00 | 0.00 | 0.00 | 72 | 1022.6 |
| 20260509054505 | 56 | 259 | 0.0 | 0.0 | 0.00 | 0.00 | 0.00 | 72 | 1022.7 |
| 20260509053005 | 57 | 257 | 0.0 | 0.0 | 0.00 | 0.00 | 0.00 | 71 | 1022.6 |
| 20260509051505 | 57 | 275 | 0.0 | 0.0 | 0.00 | 0.00 | 0.00 | 70 | 1022.4 |
| 20260509050005 | 58 | 275 | 0.0 | 0.0 | 0.00 | 0.00 | 0.00 | 69 | 1022.2 |
| 20260509044503 | 59 | 297 | 0.0 | 0.0 | 0.00 | 0.00 | 0.00 | 67 | 1022.2 |
| 20260509043003 | 60 | 288 | 0.0 | 0.0 | 0.00 | 0.00 | 0.00 | 66 | 1022.1 |
| 20260509041505 | 60 | 290 | 0.0 | 0.0 | 0.00 | 0.00 | 0.00 | 65 | 1022.0 |
| 20260509040003 | 61 | 261 | 0.0 | 0.0 | 0.00 | 0.00 | 0.00 | 65 | 1022.0 |
| 20260509034501 | 61 | 333 | 0.0 | 0.0 | 0.00 | 0.00 | 0.00 | 63 | 1021.9 |
| 20260509033003 | 62 | 277 | 0.0 | 0.0 | 0.00 | 0.00 | 0.00 | 63 | 1021.8 |
| 20260509031602 | 62 | 290 | 0.0 | 0.0 | 0.00 | 0.00 | 0.00 | 61 | 1021.6 |
| 20260509030101 | 64 | 290 | 0.0 | 0.0 | 0.00 | 0.00 | 0.00 | 59 | 1021.5 |
| 20260509024559 | 66 | 90 | 0.0 | 0.0 | 0.00 | 0.00 | 0.00 | 56 | 1021.3 |
| 20260509023058 | 66 | 321 | 0.0 | 0.0 | 0.00 | 0.00 | 0.00 | 55 | 1021.2 |
| 20260509021558 | 67 | 341 | 0.0 | 0.0 | 0.00 | 0.00 | 0.00 | 54 | 1021.2 |
| 20260509020057 | 67 | 292 | 0.0 | 0.0 | 0.00 | 0.00 | 0.00 | 54 | 1021.2 |
| 20260509014557 | 67 | 315 | 0.0 | 0.0 | 0.00 | 0.00 | 0.00 | 53 | 1021.3 |
| 20260509013057 | 67 | 360 | 0.0 | 0.0 | 0.00 | 0.00 | 0.00 | 53 | 1021.4 |
| 20260509011605 | 67 | 359 | 0.0 | 0.0 | 0.00 | 0.00 | 0.00 | 52 | 1021.5 |
| 20260509010054 | 66 | 225 | 0.0 | 0.0 | 0.00 | 0.00 | 0.00 | 52 | 1021.6 |
| 20260509004608 | 66 | 314 | 0.0 | 0.0 | 0.00 | 0.00 | 0.00 | 51 | 1021.7 |
| 20260509003054 | 68 | 360 | 0.0 | 0.0 | 0.00 | 0.00 | 0.00 | 50 | 1021.7 |
| 20260509001552 | 67 | 300 | 0.0 | 1.0 | 0.00 | 0.00 | 0.00 | 50 | 1021.7 |
| 20260509000055 | 66 | 36 | 0.0 | 0.0 | 0.00 | 0.00 | 0.00 | 51 | 1021.7 |
| 20260508234552 | 68 | 338 | 0.0 | 1.0 | 0.00 | 0.00 | 0.00 | 49 | 1021.8 |
| 20260508233051 | 68 | 303 | 0.0 | 0.0 | 0.00 | 0.00 | 0.00 | 48 | 1021.8 |
| 20260508231551 | 67 | 306 | 0.0 | 0.0 | 0.00 | 0.00 | 0.00 | 50 | 1021.8 |
| 20260508230048 | 68 | 272 | 0.0 | 0.0 | 0.00 | 0.00 | 0.00 | 48 | 1021.9 |
| 20260508224546 | 67 | 75 | 0.0 | 0.0 | 0.00 | 0.00 | 0.00 | 50 | 1021.9 |
| 20260508223050 | 67 | 235 | 0.0 | 0.0 | 0.00 | 0.00 | 0.00 | 49 | 1022.0 |
| 20260508221543 | 67 | 111 | 0.0 | 0.0 | 0.00 | 0.00 | 0.00 | 53 | 1022.1 |
| 20260508220041 | 65 | 108 | 0.0 | 0.0 | 0.00 | 0.00 | 0.00 | 54 | 1022.2 |
| 20260508214551 | 65 | 198 | 0.0 | 0.0 | 0.00 | 0.00 | 0.00 | 49 | 1022.4 |
| 20260508213039 | 65 | 197 | 0.0 | 0.0 | 0.00 | 0.00 | 0.00 | 53 | 1022.2 |
| 20260508211537 | 64 | 354 | 0.0 | 0.0 | 0.00 | 0.00 | 0.00 | 51 | 1022.2 |
| 20260508210035 | 64 | 1 | 0.0 | 0.0 | 0.00 | 0.00 | 0.00 | 52 | 1022.2 |
| 20260508204540 | 63 | 233 | 0.0 | 0.0 | 0.00 | 0.00 | 0.00 | 51 | 1022.3 |
| 20260508203031 | 64 | 77 | 0.0 | 0.0 | 0.00 | 0.00 | 0.00 | 52 | 1022.3 |
| 20260508201527 | 62 | 195 | 0.0 | 0.0 | 0.00 | 0.00 | 0.00 | 53 | 1022.5 |
| 20260508200030 | 62 | 220 | 0.0 | 1.0 | 0.00 | 0.00 | 0.00 | 54 | 1022.5 |